2018-083G (43668 NORAD) Tracking and Keplerian Element Data

This shows tracking and keplerian element data for the satellite.

Feedback or suggestion? Click here.




ElementValue
Catalog43668
Name2018-083G
Epoch Orbit219
Epoch Day316.48421255
Epoch Year2018
RAAN337.2388
Inclination97.5176
Eccentricity0.0009722
Argument of Perigee213.4116
Mean Anonmoly286.6418
Mean Motion15.16457272
Decay Rate6.2E-06
L11 43668U 18083G 18316.48421255 .00000620 00000-0 35318-4 0 9999
L22 43668 97.5176 337.2388 0009722 213.4116 286.6418 15.16457272 2193

Live tracking and technical data element details for 2018-083G (NORAD 43668). 2018-083G can be tracked NOW for your location showing map with azimuth and elevation plus other details from your city location.

Track the satellite on the map from your city or location and see movement details for azimuth, elevation, latitude, longitude, range, height, and movement on the map or in text.







IsCatalogInMostPopularTable: catalog: 43668, numindb: 4
Update: records affected: 1



GetName: 43668 2018-083G

Hit Count: updated at: Tue, 13 Nov 2018 06:24:57 GMT